This is the latest recevied weather packets stored in our database for station/object N0KTA-2. If no packets are shown the sender has not sent any weather packets the latest 10 day(s).
| Time | Temp. | Humidity | Pressure | Rain* | Wind** | Luminosity | Snow |
|---|---|---|---|---|---|---|---|
| 1788185904 | 28.89° C | 54% | 1009.8 hPa | 0 mm | - | - | - |
| 1788185304 | 28.33° C | 56% | 1009.8 hPa | 0 mm | - | - | - |
| 1788184703 | 27.78° C | 57% | 1009.8 hPa | 0 mm | - | - | - |
| 1788184103 | 27.22° C | 57% | 1009.9 hPa | 0 mm | - | - | - |
| 1788183504 | 27.22° C | 57% | 1009.6 hPa | 0 mm | - | - | - |
| 1788182903 | 26.67° C | 57% | 1009.7 hPa | 0 mm | - | - | - |
| 1788182304 | 26.11° C | 59% | 1009.6 hPa | 0 mm | - | - | - |
| 1788181703 | 26.11° C | 59% | 1009.6 hPa | 0 mm | - | - | - |
| 1788181104 | 25.56° C | 59% | 1009.5 hPa | 0 mm | - | - | - |
| 1788180503 | 25.56° C | 60% | 1009.5 hPa | 0 mm | - | - | - |
| 1788179904 | 25.56° C | 60% | 1009.5 hPa | 0 mm | - | - | - |
| 1788179303 | 25.56° C | 59% | 1009.4 hPa | 0 mm | - | - | - |
| 1788178703 | 25.56° C | 59% | 1009.5 hPa | 0 mm | - | - | - |
| 1788178104 | 25.56° C | 58% | 1009.5 hPa | 0 mm | - | - | - |
| 1788177503 | 25.56° C | 58% | 1009.2 hPa | 0 mm | - | - | - |
| 1788176904 | 26.11° C | 57% | 1008.9 hPa | 0 mm | - | - | - |
| 1788176303 | 26.11° C | 57% | 1008.8 hPa | 0 mm | - | - | - |
| 1788175704 | 26.11° C | 58% | 1008.8 hPa | 0 mm | - | - | - |
| 1788175103 | 26.11° C | 57% | 1008.8 hPa | 0 mm | - | - | - |
| 1788174503 | 26.67° C | 57% | 1008.4 hPa | 0 mm | - | - | - |
| 1788173903 | 26.67° C | 57% | 1008.3 hPa | 0 mm | - | - | - |
| 1788173304 | 26.67° C | 56% | 1008.1 hPa | 0 mm | - | - | - |
| 1788172703 | 26.67° C | 56% | 1008.1 hPa | 0 mm | - | - | - |
| 1788172103 | 27.22° C | 56% | 1008.1 hPa | 0 mm | - | - | - |
| 1788171504 | 27.22° C | 54% | 1008 hPa | 0 mm | - | - | - |
* Rain latest hour (hover to see other rain measurements)
** Current wind speed in m/s (hover to see current wind gust speed)